This is the latest recevied weather packets stored in our database for station/object W0VI. If no packets are shown the sender has not sent any weather packets the latest 10 day(s).
| Time | Temp. | Humidity | Pressure | Rain* | Wind** | Luminosity | Snow |
|---|---|---|---|---|---|---|---|
| 1787488227 | 12.22° C | 98% | 1020.3 hPa | 0 mm | - | 45 W/m² | - |
| 1787487919 | 12.22° C | 98% | 1020.3 hPa | 0 mm | - | 33 W/m² | - |
| 1787487616 | 11.67° C | 98% | 1020.2 hPa | 0 mm | - | 32 W/m² | - |
| 1787487312 | 11.67° C | 98% | 1020.4 hPa | 0 mm | - | 28 W/m² | - |
| 1787487008 | 11.11° C | 98% | 1020.2 hPa | 0 mm | - | 24 W/m² | - |
| 1787486701 | 11.11° C | 98% | 1020.2 hPa | 0 mm | - | 21 W/m² | - |
| 1787486400 | 11.11° C | 98% | 1020.2 hPa | 0 mm | - | 18 W/m² | - |
| 1787486095 | 11.11° C | 98% | 1020.2 hPa | 0 mm | - | 16 W/m² | - |
| 1787485791 | 11.11° C | 97% | 1020.4 hPa | 0 mm | - | 12 W/m² | - |
| 1787485487 | 11.11° C | 97% | 1019.9 hPa | 0 mm | - | 10 W/m² | - |
| 1787485182 | 11.67° C | 97% | 1020.3 hPa | 0 mm | - | 7 W/m² | - |
| 1787484877 | 11.67° C | 97% | 1020.3 hPa | 0 mm | - | 4 W/m² | - |
| 1787484574 | 11.11° C | 97% | 1020.3 hPa | 0 mm | - | 3 W/m² | - |
| 1787484269 | 11.11° C | 96% | 1019.9 hPa | 0 mm | - | 0 W/m² | - |
| 1787483966 | 11.11° C | 96% | 1020.2 hPa | 0 mm | - | 0 W/m² | - |
| 1787483662 | 11.11° C | 96% | 1019.9 hPa | 0 mm | - | 0 W/m² | - |
| 1787483358 | 11.11° C | 96% | 1020.2 hPa | 0 mm | - | 0 W/m² | - |
| 1787483055 | 11.11° C | 96% | 1020.5 hPa | 0 mm | - | 0 W/m² | - |
| 1787482749 | 11.11° C | 95% | 1020 hPa | 0 mm | - | 0 W/m² | - |
| 1787482446 | 11.11° C | 95% | 1020.3 hPa | 0 mm | - | 0 W/m² | - |
| 1787482143 | 11.67° C | 95% | 1020.2 hPa | 0 mm | - | 0 W/m² | - |
| 1787481841 | 11.11° C | 94% | 1020.5 hPa | 0 mm | - | 0 W/m² | - |
| 1787481536 | 11.67° C | 94% | 1020.2 hPa | 0 mm | - | 0 W/m² | - |
| 1787481235 | 11.67° C | 94% | 1020.6 hPa | 0 mm | - | 0 W/m² | - |
| 1787480930 | 11.67° C | 94% | 1020.6 hPa | 0 mm | - | 0 W/m² | - |
* Rain latest hour (hover to see other rain measurements)
** Current wind speed in m/s (hover to see current wind gust speed)